Simultaneous Nadir Overpasses (SNOs) Predictions

Prediction of SNOs between GOES-16 and METOP-B Satellite Orbit:

Table of predicted SNOs for the next 14.0 days since TLE Epoch: 9/10/2022
Index Date Time (GOES-16) GOES-16 Lat,Lon METOP-B Lat,Lon Distance(km) Time Diff (sec)
1 09/10/2022 14:34:21 -0.04, -75.20 0.21, -76.43 140.06 80
2 09/11/2022 14:16:20 -0.04, -75.20 -0.89, -71.43 429.99 80
3 09/13/2022 02:35:20 0.04, -75.20 -0.13, -76.03 93.55 80
4 09/14/2022 02:14:39 0.04, -75.21 0.97, -71.03 476.83 80
5 09/15/2022 14:30:49 -0.04, -75.24 0.05, -75.58 39.57 80
6 09/18/2022 02:29:08 0.03, -75.26 0.04, -75.18 8.50 80
7 09/20/2022 14:29:58 -0.03, -75.30 -0.13, -74.74 63.71 80
8 09/22/2022 02:48:57 0.02, -75.32 -0.88, -79.33 457.98 80
9 09/23/2022 02:25:37 0.02, -75.33 0.22, -74.33 113.49 80
